Location: Newark
(46.7636°N, 1.8358°W)
Time: 15:01:01
(UTC+00:00)

Transit 2A - Visible Passes

Search period start: 17 October 2019 00:00
Search period end: 27 October 2019 00:00
Orbit: 600 x 959 km, 66.7° (Epoch: 16 October)

Date Brightness Start Highest point End Pass type
(mag) Time Alt. Az. Time Alt. Az. Time Alt. Az.
17 Oct 7.2 03:56:59 18° N 03:59:37 32° NE 04:03:31 10° ESE visible
17 Oct 6.2 05:38:48 10° NW 05:42:44 33° WSW 05:46:37 10° S visible
17 Oct 8.0 18:39:53 10° SE 18:40:21 11° SE 18:40:21 11° SE visible
17 Oct 8.3 20:20:05 10° SSW 20:20:57 15° SW 20:20:57 15° SW visible
18 Oct 7.6 03:24:44 23° NNE 03:25:19 24° NE 03:28:51 10° E visible
18 Oct 5.7 05:05:18 15° NW 05:08:44 50° WSW 05:12:55 10° SSE visible
18 Oct 7.1 19:46:01 10° SSW 19:49:05 33° SSW 19:49:05 33° SSW visible
19 Oct 8.4 02:52:38 15° ENE 02:52:38 15° ENE 02:54:00 10° E visible
19 Oct 5.3 04:33:12 41° NW 04:34:40 77° WSW 04:39:00 10° SSE visible
19 Oct 6.2 19:12:09 10° S 19:17:04 47° SE 19:17:04 47° SE visible
19 Oct 8.3 20:56:00 10° WSW 20:57:37 18° W 20:57:37 18° W visible
20 Oct 5.9 04:01:15 58° ESE 04:01:15 58° ESE 04:04:52 10° SE visible
20 Oct 7.3 05:41:50 12° W 05:43:03 13° WSW 05:45:10 10° SW visible
20 Oct 6.6 18:38:31 10° S 18:43:21 33° ESE 18:44:51 28° E visible
20 Oct 7.2 20:21:24 10° WSW 20:25:24 37° W 20:25:24 37° W visible
21 Oct 7.9 03:29:24 18° ESE 03:29:24 18° ESE 03:30:35 10° SE visible
21 Oct 7.0 05:09:59 19° SW 05:09:59 19° SW 05:12:22 10° SSW visible
21 Oct 7.1 18:05:09 10° SSE 18:09:22 23° ESE 18:12:28 14° ENE visible
21 Oct 6.4 19:46:58 10° SW 19:52:15 58° NW 19:53:00 52° NNW visible
22 Oct 7.6 04:38:11 14° SSW 04:38:11 14° SSW 04:39:01 10° S visible
22 Oct 7.5 17:32:11 10° SE 17:35:26 16° ESE 17:38:30 10° ENE visible
22 Oct 5.9 19:12:42 10° SW 19:18:06 81° WNW 19:20:27 32° NNE visible
22 Oct 8.4 20:58:32 10° W 21:00:58 17° NW 21:00:58 17° NW visible
23 Oct 5.8 18:38:36 10° SSW 18:44:00 73° ESE 18:47:44 17° NE visible
23 Oct 7.9 20:23:32 10° W 20:27:35 23° NW 20:28:15 22° NNW visible
24 Oct 6.1 18:04:42 10° SSW 18:09:55 51° ESE 18:14:40 10° NE visible
24 Oct 7.6 19:48:44 10° WSW 19:53:16 29° NW 19:55:25 21° N visible
25 Oct 6.6 17:31:00 10° S 17:35:53 35° ESE 17:40:21 10° NE visible
25 Oct 7.1 19:14:06 10° WSW 19:19:01 39° NW 19:22:29 16° NNE visible
25 Oct 8.8 21:02:26 10° NW 21:02:59 10° NNW 21:02:59 10° NNW visible
26 Oct 6.6 18:39:38 10° SW 18:44:49 54° NW 18:49:28 10° NNE visible
26 Oct 8.5 20:26:38 10° WNW 20:28:58 13° NNW 20:29:58 12° NNW visible
